sat.trackr.live / text

‹ back to catalog

STARLINK-30523

NORAD 57997 · 2023-153G

PAYLOAD ACTIVE UNKNOWN

§ Identity

Operator
Country
US
Launch date
2023-10-05
Launch site
AFETR
Launch vehicle
Mass (kg)
RCS (m²)

Purposes: comms

External: N2YO · Heavens-Above · Gunter

§ Orbital elements

Epoch: 2026-09-19T03:38:10.023360Z

Period
94.27 min
Inclination
43.0063°
Eccentricity
0.0002068
Mean motion
15.27578508 rev/d
Perigee alt
481.6 km
Apogee alt
484.5 km
Semi-major
6,861.2 km
B*
2.1880e-5
RAAN
54.5044°
Arg perigee
280.3330°
Mean anomaly
79.7288°
Rev number
16,448

§ Raw data

STARLINK-305231 57997U 23153G   26262.15150490  .00000340  00000+0  21880-4 0  99932 57997  43.0063  54.5044 0002068 280.3330  79.7288 15.27578508164484

JSON: /api/v1/satellites/57997 · /tle

For live sub-satellite position, see the globe view (requires WebGL).

§ Visibility from observer

Set your observer location to see the next 7 days of passes ≥ 10°. The values pass through the URL so the page stays shareable.

No JS? Fill the form by hand. The geolocation button needs JavaScript.